Dewpoint
-6 -7 -8 -8 -7 -7 -7 -7 -8 -10 -10 -4 -2 -1 -2 -3 -3 -3 -3 -3 -3 -3 -4 -4 -4 -5 -5 -6 -6 -5 -5 -4 -4 -4 -5 -5 -5 -5 -5 -4 -4 -4 -4 -3
-8 -7 -8 -7 -6 -6 -5 -4 -5 -8 -6 -6 -2 -1 -2 -3 -3 -3 -3 -2 -3 -3 -4 -5 -6 -6 -7 -7 -7 -7 -7 -6 -5 -4 -4 -4 -4 -4 -4 -4 -4 -4 -3 -3
-5 -7 -7 -7 -5 -4 -4 -4 -6 -7 -5 -2 -2 -2 -1 -2 -2 -2 -2 -2 -3 -3 -3 -5 -6 -7 -7 -7 -7 -7 -7 -7 -6 -4 -4 -4 -3 -3 -3 -3 -3 -3 -3 -3
-7 -9 -9 -6 -5 -6 -4 -6 -6 -8 -7 -5 -4 -4 -2 -1 -1 -2 -2 -2 -3 -3 -3 -5 -6 -7 -8 -8 -7 -7 -7 -7 -7 -5 -4 -3 -3 -3 -3 -3 -3 -3 -3 -3
1 -6 -5 -7 -8 -5 -4 -5 -6 -7 -6 -4 -4 -4 -3 -1 -0 -1 -2 -2 -3 -4 -4 -5 -7 -7 -8 -8 -7 -7 -7 -8 -7 -5 -4 -3 -3 -3 -3 -3 -3 -3 -3 -3
-5 -7 -6 -5 -6 -8 -6 -4 -2 -2 -3 -1 -4 -5 -5 0 -1 -1 -2 -3 -4 -4 -5 -6 -7 -8 -8 -8 -8 -8 -8 -8 -7 -5 -4 -3 -3 -3 -3 -3 -3 -3 -3 -3
-6 -7 -9 -8 -6 -6 -6 -4 -2 -0 -0 -1 -2 -3 -5 -1 -1 -1 -2 -3 -4 -5 -5 -7 -8 -8 -8 -8 -8 -8 -8 -8 -7 -6 -5 -4 -3 -3 -3 -3 -3 -3 -3 -3
-4 -1 -7 -8 -6 -5 -4 -4 -2 1 1 -1 -1 -1 -4 -1 -2 -2 -3 -4 -5 -6 -6 -7 -8 -8 -8 -8 -8 -8 -8 -7 -7 -7 -6 -5 -4 -3 -3 -3 -3 -4 -3 -3
-3 -3 -7 -8 -7 -8 -4 -2 -5 -1 1 2 -0 -0 -0 -1 -2 -2 -4 -5 -5 -6 -6 -7 -7 -8 -8 -8 -8 -8 -7 -7 -7 -7 -7 -7 -6 -4 -4 -4 -4 -4 -4 -4
-4 -2 -6 -6 -7 -7 -6 -5 -2 2 6 4 0 1 1 1 -0 -2 -3 -4 -6 -6 -6 -7 -7 -8 -8 -8 -8 -8 -8 -8 -7 -7 -7 -7 -7 -7 -5 -4 -4 -4 -4 -4
-7 -3 -4 -6 -4 -5 -3 -3 -2 -2 -0 2 2 2 1 1 -0 -1 -3 -5 -6 -6 -6 -7 -7 -8 -8 -9 -9 -8 -8 -8 -8 -8 -9 -9 -8 -8 -8 -6 -5 -5 -5 -5
-6 -3 -3 -4 -7 -7 -6 -4 -3 1 3 2 2 4 -0 -0 -1 -2 -3 -5 -6 -6 -6 -7 -7 -8 -9 -9 -9 -9 -8 -8 -8 -8 -9 -10 -10 -9 -9 -8 -8 -7 -7 -6
-4 -1 1 -0 -3 -5 -5 -5 -2 0 1 4 6 4 -1 -2 -2 -2 -4 -4 -5 -6 -6 -7 -7 -9 -9 -9 -9 -9 -9 -9 -8 -8 -9 -10 -12 -12 -11 -10 -9 -9 -8 -8
-3 -1 1 2 -0 -0 -1 -3 -2 0 6 5 5 3 1 0 -1 -2 -4 -4 -5 -6 -7 -7 -8 -9 -9 -9 -9 -9 -9 -9 -9 -9 -9 -10 -11 -13 -13 -12 -11 -10 -9 -9
-1 -0 0 -1 -2 -1 -1 -0 -1 3 3 4 3 3 2 1 -1 -2 -4 -5 -6 -6 -7 -7 -8 -9 -9 -10 -10 -10 -10 -10 -9 -9 -9 -10 -11 -12 -15 -14 -13 -11 -10 -9
1 1 1 1 -1 1 4 1 -0 1 3 4 4 1 -1 -1 -2 -2 -4 -5 -6 -7 -7 -8 -8 -9 -10 -10 -10 -10 -10 -10 -10 -10 -10 -11 -12 -13 -15 -16 -16 -14 -12 -11
1 2 4 3 1 4 5 3 3 1 0 2 3 1 -1 -1 -2 -3 -4 -5 -6 -6 -7 -8 -9 -9 -10 -10 -11 -11 -11 -11 -11 -11 -11 -11 -13 -14 -16 -17 -18 -17 -15 -14
1 2 4 4 4 5 1 -0 1 2 1 1 -0 0 -1 -1 -3 -4 -5 -6 -6 -7 -8 -9 -9 -10 -11 -11 -11 -11 -11 -12 -12 -12 -12 -12 -13 -15 -17 -18 -19 -20 -19 -19
-0 1 4 4 3 2 0 0 1 1 1 -1 -0 -2 -4 -5 -5 -6 -6 -6 -7 -8 -9 -9 -10 -11 -11 -12 -12 -12 -13 -13 -13 -14 -13 -14 -14 -16 -17 -18 -20 -20 -22 -22
1 1 3 4 4 3 1 -0 -2 -3 2 -1 -2 -4 -5 -5 -2 -5 -6 -6 -7 -9 -10 -10 -11 -12 -12 -13 -13 -13 -15 -15 -15 -15 -15 -15 -16 -17 -17 -18 -20 -20 -21 -23
4 4 4 3 4 2 -1 -1 -3 1 3 -2 -3 -4 -5 -4 -4 -5 -6 -7 -8 -10 -11 -11 -12 -12 -13 -14 -15 -16 -16 -17 -16 -16 -16 -17 -18 -18 -19 -18 -19 -20 -20 -21
3 3 3 3 3 2 -1 -2 -0 0 -2 -2 -4 -4 -4 -5 -5 -6 -6 -7 -9 -10 -11 -12 -13 -13 -15 -16 -17 -18 -19 -18 -18 -18 -19 -21 -21 -22 -22 -22 -23 -23 -23 -23
3 1 1 0 1 -1 -2 -2 -4 -4 -3 -3 -4 -4 -4 -5 -6 -6 -7 -9 -10 -11 -12 -13 -14 -15 -17 -18 -19 -20 -20 -20 -21 -22 -23 -24 -24 -25 -26 -26 -26 -27 -26 -26
-0 -1 1 -0 -1 -2 -2 -3 -4 -4 -4 -3 -4 -4 -5 -5 -6 -7 -8 -9 -11 -13 -14 -15 -16 -17 -19 -20 -21 -22 -23 -23 -24 -26 -27 -27 -29 -28 -28 -29 -29 -29 -28 -27
-1 -1 0 -0 -2 -2 -2 -3 -4 -4 -4 -4 -4 -5 -5 -5 -6 -7 -9 -10 -11 -15 -16 -17 -19 -19 -20 -20 -22 -23 -24 -25 -26 -27 -29 -30 -31 -32 -32 -33 -33 -32 -32 -31
-1 -0 1 3 -2 -2 -2 -3 -4 -4 -4 -4 -4 -5 -5 -6 -8 -8 -9 -10 -12 -17 -18 -20 -20 -20 -21 -22 -23 -24 -25 -26 -27 -29 -31 -33 -33 -33 -33 -33 -32 -32 -33 -33
Wind_Speed
3 2 5 4 4 4 1 2 2 1 3 5 1 9 11 10 8 6 4 3 5 6 10 10 11 13 13 14 16 18 21 24 26 29 32 33 34 34 33 34 34 33 32 31
1 4 6 4 2 4 5 4 4 3 4 2 7 7 8 12 7 8 7 4 3 4 8 11 12 13 15 17 18 19 21 23 26 28 29 31 31 32 34 34 33 33 33 32
7 4 5 4 2 3 3 4 4 5 2 3 6 5 9 8 9 8 4 3 3 6 8 12 12 14 16 18 20 20 21 22 24 25 27 30 31 34 38 40 38 36 32 31
5 3 7 5 4 8 7 8 8 5 3 5 2 7 6 10 11 10 4 3 2 4 6 10 12 14 16 17 18 19 20 21 23 25 27 30 33 35 37 40 39 38 36 33
5 4 4 4 7 10 6 6 8 6 4 3 5 5 3 8 12 13 7 3 2 3 6 9 12 14 15 16 18 19 21 22 24 25 26 28 30 32 34 38 39 38 37 35
8 4 4 4 3 10 5 5 3 2 2 7 10 9 11 7 8 9 7 4 2 3 6 7 11 13 15 16 17 18 20 21 22 23 24 26 28 31 34 37 39 39 38 37
2 13 9 8 8 1 11 7 4 5 5 9 4 9 14 8 7 11 14 7 3 2 4 7 12 14 16 17 17 18 19 20 22 23 24 26 27 29 32 34 35 37 39 38
3 6 6 4 16 9 11 14 7 9 6 4 5 8 2 5 9 12 11 8 4 3 5 9 13 14 15 16 17 18 19 20 21 22 24 25 26 28 29 31 32 33 35 35
4 6 3 4 4 12 5 10 11 4 2 3 4 2 3 8 8 10 9 6 4 3 4 7 10 12 14 15 17 18 18 19 20 22 23 25 26 26 27 28 29 31 31 32
3 10 8 13 5 5 13 5 7 2 5 7 6 5 7 14 14 11 9 8 6 3 1 5 9 11 13 14 15 16 17 19 20 21 23 24 26 26 26 27 28 29 30 31
7 6 6 6 3 5 5 9 6 4 11 6 6 4 3 11 16 15 13 12 9 5 2 5 8 10 11 12 13 15 16 17 18 19 21 23 24 25 26 27 28 29 29 29
6 3 8 11 14 12 11 8 8 9 7 6 7 7 4 4 14 17 15 14 10 4 1 4 7 9 11 12 14 15 15 16 18 18 20 22 23 24 25 26 27 28 29 30
2 1 5 7 6 14 10 16 8 3 6 17 6 4 3 5 11 13 18 14 11 6 1 4 4 9 11 13 14 15 15 17 17 17 18 22 24 25 25 26 26 27 27 29
5 8 12 13 4 1 4 17 13 6 5 3 11 2 6 9 10 14 16 15 13 7 1 3 6 8 11 13 14 15 16 17 17 15 17 22 24 26 25 25 26 27 28 29
7 15 11 18 15 12 13 8 11 14 12 7 5 8 7 19 17 20 21 18 13 6 1 3 7 8 11 11 12 14 15 16 16 16 18 21 24 24 23 24 24 25 27 29
2 8 7 18 16 15 16 19 14 15 16 12 12 17 2 6 18 18 19 18 12 7 2 2 6 8 10 11 13 14 15 15 15 16 18 20 23 24 24 23 23 24 26 28
4 4 3 9 6 5 9 15 18 16 18 17 16 11 9 8 17 23 21 17 13 8 4 2 4 6 8 10 12 13 14 14 13 16 19 21 24 25 24 23 23 24 25 26
7 8 4 5 2 7 2 3 8 16 8 7 3 8 12 13 14 16 17 17 13 8 4 2 2 4 7 9 10 11 11 13 15 18 20 21 23 24 24 23 23 24 25 27
12 10 4 4 8 8 5 4 5 7 9 10 9 11 16 20 16 7 16 14 11 7 4 3 2 3 5 7 8 10 10 13 16 19 21 21 21 24 24 25 25 25 26 27
7 9 8 5 5 5 2 2 4 2 8 15 17 19 25 23 9 6 21 15 11 8 6 4 3 2 3 6 8 8 11 13 17 19 20 20 21 24 25 24 25 25 26 27
4 3 13 11 5 5 4 4 7 5 4 14 19 27 27 9 3 19 25 18 12 9 7 6 4 3 4 7 8 8 11 15 16 16 18 19 21 23 24 24 24 26 27 28
9 6 3 2 1 7 8 6 5 1 5 13 19 23 21 16 20 28 23 18 14 10 9 8 7 5 6 7 8 9 12 14 14 15 17 19 21 22 24 24 24 25 27 29
5 6 4 8 5 1 8 0 5 6 12 15 21 24 25 23 23 24 23 18 14 11 10 10 8 7 6 7 9 9 12 12 14 14 17 19 20 22 23 24 26 27 29 29
4 4 3 2 3 2 5 4 7 6 15 21 23 28 24 23 23 24 22 19 15 12 11 11 10 8 7 8 10 10 11 11 12 14 16 18 19 20 22 23 25 27 28 28
2 9 6 4 2 2 9 11 12 12 17 21 22 22 21 20 25 24 22 18 15 12 13 12 11 9 8 8 8 9 9 10 11 12 14 15 17 18 20 21 23 23 25 26
7 6 5 4 10 6 7 22 18 20 23 24 26 23 19 21 24 22 20 17 14 14 14 13 13 11 9 8 7 7 8 8 9 9 11 12 14 15 16 17 18 19 20 20
Wind_Direction
39 40 261 262 240 327 332 248 240 279 90 111 293 159 171 158 146 149 132 90 52 43 30 29 25 19 18 17 18 18 17 16 13 9 5 2 360 357 355 355 353 347 336 330
67 248 279 238 233 248 285 301 276 285 60 189 164 182 185 187 184 177 167 147 81 44 33 25 23 17 14 15 16 16 14 13 13 11 9 6 1 1 359 356 357 355 345 336
204 193 98 159 195 240 238 229 246 261 84 67 149 213 198 204 184 179 157 116 42 26 25 21 20 15 14 14 14 13 11 10 8 7 6 5 4 4 2 359 358 358 353 344
242 256 220 207 223 209 253 206 233 255 269 266 254 278 209 202 196 203 185 113 57 26 14 14 17 16 15 15 14 15 14 11 7 3 2 3 3 3 2 358 358 357 356 352
236 169 171 185 222 174 231 198 211 213 220 289 214 266 130 171 215 208 190 142 73 26 12 13 14 15 15 16 18 15 13 11 8 5 3 3 4 3 2 359 357 356 355 352
254 228 191 218 237 210 153 115 77 76 152 246 228 217 265 187 222 179 166 146 74 20 10 11 12 16 17 17 16 13 12 12 10 8 6 6 4 5 3 2 358 356 353 349
314 245 241 213 240 136 196 175 209 224 208 250 139 207 257 169 169 168 158 150 131 55 26 12 13 16 15 15 13 11 11 11 10 9 9 8 7 7 6 3 360 356 351 349
290 291 180 202 220 221 200 205 211 239 217 250 146 228 260 154 133 123 130 135 133 79 49 19 14 12 13 11 11 10 10 9 8 8 10 9 9 8 8 5 2 1 355 351
226 250 285 219 222 206 194 218 234 256 78 286 220 225 181 152 159 153 143 144 135 90 57 24 15 11 11 10 10 10 8 8 7 8 10 11 10 9 8 7 6 3 1 353
230 275 248 268 185 220 225 168 215 185 222 235 231 249 232 200 194 182 173 171 157 149 87 25 15 11 10 7 8 9 8 7 6 9 13 12 11 11 9 8 8 7 3 358
209 238 242 332 209 206 212 226 230 256 214 249 263 237 199 203 190 184 182 179 169 159 96 23 13 11 8 8 8 8 7 8 9 11 14 12 12 12 11 10 8 8 6 5
219 254 260 253 263 255 272 263 261 237 229 242 272 264 345 175 165 174 175 175 166 163 133 16 6 13 12 14 13 8 8 11 11 10 13 14 14 13 12 12 11 10 9 8
175 228 285 276 251 250 243 238 230 238 247 235 238 260 36 128 136 167 166 171 174 175 142 8 24 21 19 19 16 12 10 13 11 9 13 17 17 15 13 11 13 13 14 16
228 229 232 252 261 206 252 252 210 226 226 209 221 198 211 213 184 171 169 173 175 165 159 13 26 23 25 21 17 14 12 11 9 9 16 21 19 17 14 12 12 14 18 20
203 248 234 243 247 252 266 241 221 208 232 234 259 222 223 210 194 175 175 175 170 158 173 10 17 18 21 20 15 13 10 6 5 9 17 22 21 17 16 16 16 17 20 24
191 265 273 267 270 266 254 250 237 212 236 244 249 259 92 150 164 168 175 176 169 173 176 36 17 16 14 15 18 15 11 6 6 12 20 22 22 19 17 19 20 23 26 28
249 223 229 262 255 261 259 235 229 236 227 211 222 239 158 153 181 177 173 175 170 178 168 73 25 14 12 15 17 17 14 6 10 19 25 25 22 21 23 22 23 25 29 31
214 248 217 277 209 235 285 261 241 230 227 199 169 171 180 162 160 161 173 167 167 165 153 92 42 20 19 19 16 20 13 15 21 27 27 26 24 24 27 29 30 30 31 30
213 218 228 245 247 292 281 227 196 191 232 191 153 139 125 132 121 125 170 174 164 156 156 154 107 37 26 17 25 30 22 28 30 31 29 28 29 29 31 33 36 37 37 35
170 224 205 208 244 261 250 188 196 208 267 179 161 158 152 149 169 175 174 173 161 161 153 132 107 65 43 41 44 32 34 37 39 35 33 33 36 35 36 37 42 45 44 42
179 187 209 217 228 270 257 167 160 176 255 167 168 161 159 163 115 155 166 161 162 156 147 140 141 136 83 60 52 46 48 48 43 38 40 42 43 42 41 41 44 47 49 49
190 190 202 165 143 262 153 138 201 171 94 161 160 159 148 137 134 149 158 160 161 159 153 154 148 128 92 73 65 63 58 53 49 46 47 49 48 47 47 45 46 48 49 48
194 194 189 196 207 48 174 252 198 187 159 165 159 160 160 146 146 153 158 162 160 162 158 151 145 132 110 93 85 74 68 61 58 56 53 51 49 47 45 43 44 42 42 42
224 188 222 168 184 200 206 220 183 185 175 172 171 165 164 151 157 158 162 164 166 160 159 154 150 142 131 109 96 88 80 73 66 62 58 53 47 45 42 39 37 35 35 34
181 162 174 248 263 246 226 206 182 165 163 161 162 164 165 167 164 166 167 167 165 165 163 160 156 154 144 123 106 99 92 81 71 63 58 54 46 39 35 34 32 31 30 26
191 175 187 221 209 200 216 191 182 170 166 167 163 162 170 173 166 170 168 170 173 171 169 166 164 161 153 140 128 109 96 85 72 61 54 49 45 41 38 33 28 27 27 25
Height
1530 1531 1530 1531 1532 1531 1528 1528 1524 1523 1522 1523 1534 1539 1544 1548 1550 1551 1551 1550 1549 1549 1547 1543 1541 1539 1537 1533 1529 1527 1524 1521 1518 1513 1510 1507 1504 1500 1497 1492 1488 1483 1478 1473
1531 1531 1526 1527 1529 1531 1530 1529 1528 1525 1526 1524 1535 1537 1544 1546 1546 1547 1547 1547 1545 1545 1542 1542 1540 1538 1536 1533 1529 1525 1522 1518 1515 1512 1509 1506 1504 1501 1496 1491 1486 1480 1475 1470
1523 1520 1523 1527 1528 1529 1529 1529 1528 1525 1528 1533 1533 1530 1537 1542 1543 1545 1544 1543 1542 1541 1539 1540 1539 1537 1535 1531 1527 1523 1520 1516 1513 1510 1507 1504 1501 1497 1492 1486 1480 1476 1471 1467
1522 1519 1519 1522 1525 1525 1528 1522 1523 1525 1525 1523 1531 1513 1526 1534 1539 1543 1544 1541 1542 1542 1540 1540 1538 1536 1533 1530 1527 1523 1519 1515 1511 1507 1504 1499 1495 1491 1487 1482 1477 1472 1469 1463
1515 1517 1520 1521 1518 1518 1517 1517 1518 1520 1524 1526 1526 1526 1514 1533 1534 1535 1541 1541 1541 1542 1541 1539 1537 1535 1531 1528 1526 1522 1518 1512 1508 1505 1502 1498 1494 1490 1485 1480 1475 1470 1464 1460
1515 1515 1515 1513 1513 1514 1514 1517 1521 1524 1523 1521 1511 1518 1482 1521 1519 1529 1537 1539 1539 1539 1538 1537 1536 1533 1531 1528 1524 1520 1516 1512 1508 1505 1501 1497 1492 1487 1482 1476 1472 1467 1461 1454
1515 1512 1511 1511 1513 1515 1515 1514 1520 1524 1525 1510 1512 1514 1483 1514 1520 1520 1528 1534 1536 1537 1536 1535 1532 1529 1527 1525 1523 1519 1514 1510 1507 1504 1499 1494 1491 1486 1480 1475 1471 1465 1459 1451
1516 1511 1508 1506 1507 1507 1510 1509 1508 1513 1514 1506 1513 1503 1494 1518 1521 1523 1527 1530 1534 1534 1533 1532 1530 1528 1526 1524 1521 1518 1513 1509 1506 1503 1498 1494 1489 1485 1480 1476 1471 1465 1461 1453
1513 1511 1505 1504 1503 1507 1508 1509 1502 1508 1515 1514 1497 1506 1516 1520 1524 1526 1526 1528 1531 1532 1530 1530 1529 1528 1525 1523 1520 1517 1514 1510 1506 1503 1498 1493 1489 1485 1481 1476 1471 1466 1460 1455
1505 1507 1501 1500 1500 1502 1501 1501 1508 1511 1520 1512 1493 1499 1482 1513 1515 1521 1525 1526 1529 1531 1531 1528 1527 1526 1523 1522 1519 1516 1513 1509 1506 1502 1497 1493 1488 1484 1480 1475 1471 1466 1459 1454
1503 1505 1500 1500 1499 1498 1500 1500 1500 1500 1501 1500 1491 1486 1497 1496 1503 1513 1521 1525 1529 1530 1529 1526 1525 1523 1521 1520 1517 1514 1512 1509 1506 1502 1497 1493 1488 1483 1479 1474 1470 1465 1460 1453
1503 1505 1501 1500 1495 1495 1496 1495 1497 1499 1504 1502 1498 1491 1503 1498 1501 1511 1519 1522 1526 1528 1528 1524 1523 1521 1519 1517 1515 1513 1512 1509 1505 1501 1497 1493 1487 1482 1478 1474 1470 1464 1458 1453
1501 1505 1504 1495 1492 1489 1490 1486 1491 1495 1494 1497 1503 1488 1507 1506 1504 1510 1517 1521 1523 1525 1524 1523 1522 1519 1517 1515 1514 1513 1511 1508 1505 1501 1499 1492 1485 1481 1477 1474 1469 1464 1459 1453
1499 1498 1499 1494 1491 1491 1490 1483 1484 1493 1499 1493 1488 1495 1509 1508 1505 1509 1514 1518 1521 1520 1521 1521 1519 1517 1515 1514 1513 1512 1509 1507 1505 1503 1498 1490 1485 1480 1477 1473 1468 1463 1458 1452
1494 1488 1491 1485 1486 1486 1483 1481 1481 1489 1492 1496 1486 1491 1489 1493 1495 1502 1509 1516 1517 1516 1519 1518 1516 1515 1514 1514 1513 1510 1508 1507 1507 1503 1496 1489 1485 1481 1478 1473 1468 1464 1458 1452
1490 1486 1488 1482 1481 1484 1490 1478 1476 1479 1485 1489 1491 1483 1483 1486 1495 1502 1507 1512 1511 1513 1515 1514 1514 1514 1514 1514 1511 1510 1509 1508 1506 1502 1495 1489 1486 1482 1478 1473 1469 1465 1459 1454
1491 1488 1491 1480 1480 1488 1482 1472 1469 1467 1464 1470 1474 1472 1484 1488 1494 1497 1503 1507 1508 1511 1512 1512 1513 1514 1514 1512 1511 1510 1510 1508 1505 1500 1494 1490 1487 1483 1479 1474 1470 1465 1460 1456
1485 1488 1489 1480 1484 1474 1458 1463 1462 1461 1461 1464 1466 1471 1473 1481 1492 1496 1501 1503 1506 1507 1509 1510 1513 1513 1512 1512 1512 1511 1510 1507 1503 1498 1494 1491 1488 1484 1480 1476 1471 1466 1461 1456
1477 1482 1483 1479 1470 1462 1458 1460 1461 1458 1454 1460 1464 1472 1477 1486 1491 1498 1500 1502 1504 1505 1507 1511 1512 1512 1512 1512 1512 1511 1509 1506 1502 1498 1495 1492 1489 1485 1481 1477 1472 1468 1463 1459
1474 1475 1478 1476 1472 1462 1453 1456 1457 1456 1453 1454 1458 1468 1474 1481 1485 1489 1495 1499 1501 1504 1507 1509 1510 1511 1512 1512 1511 1510 1508 1505 1502 1499 1496 1493 1490 1487 1483 1479 1475 1472 1467 1463
1472 1472 1468 1465 1466 1461 1452 1455 1457 1458 1455 1453 1457 1462 1470 1475 1479 1481 1491 1496 1501 1504 1506 1508 1509 1511 1512 1511 1510 1509 1507 1505 1503 1500 1498 1495 1492 1489 1486 1483 1479 1476 1472 1468
1460 1464 1464 1466 1466 1463 1451 1456 1455 1453 1453 1455 1458 1464 1471 1475 1479 1483 1489 1495 1499 1502 1505 1508 1509 1510 1510 1511 1510 1509 1507 1505 1504 1502 1500 1497 1494 1492 1490 1487 1483 1480 1476 1472
1457 1453 1454 1453 1450 1451 1450 1451 1450 1451 1451 1456 1458 1464 1469 1474 1478 1483 1489 1494 1498 1502 1504 1506 1508 1509 1510 1510 1510 1509 1507 1507 1505 1503 1501 1499 1497 1495 1492 1490 1486 1483 1479 1475
1450 1450 1449 1451 1448 1449 1450 1450 1451 1451 1452 1455 1460 1463 1469 1472 1478 1484 1489 1494 1498 1501 1503 1505 1506 1508 1509 1510 1509 1509 1508 1507 1506 1504 1502 1500 1499 1497 1494 1491 1488 1484 1481 1477
1444 1446 1447 1447 1449 1449 1448 1448 1449 1451 1454 1457 1462 1465 1469 1473 1479 1484 1489 1493 1497 1499 1502 1504 1506 1507 1508 1508 1509 1509 1508 1507 1506 1504 1503 1501 1500 1498 1495 1493 1490 1487 1484 1480
1440 1439 1441 1438 1435 1436 1437 1442 1446 1450 1453 1457 1460 1465 1471 1475 1479 1484 1488 1492 1496 1498 1500 1503 1505 1506 1507 1507 1508 1508 1507 1507 1505 1504 1503 1502 1500 1499 1497 1495 1492 1489 1486 1484